map of BGX home
Great Circle Mapper logo
BGX - Airport
Location
City:  Bagé, Rio Grande do Sul, Brazil
Name:Comandante Gustavo Kraemer
ICAO / IATA:SBBG / BGX

Details
Type:Airport (Aerodrome, Airfield)
Latitude:31°23'26"S (-31.390527)
Longitude:54°06'44"W (-54.112243)
Datum:WGS 1984
Elevation:600 ft (183 m)
Variation:13.7°W (WMM2015 magnetic declination)
Runways:2
Longest:4921 × 98 ft (1500 × 30 m), paved

Time
Time Zone:UTC-3 (DST-2)
Local Time:

Weather
METAR:SBBG 201045Z 03008KT CAVOK 24/17 Q1005

Related Locations
Nearby:
Farthest:RKPD: 12285 mi / 19770 km
Jeongseok, Cheju Do Island, KR

Find:

   beyond  
but within

Other Information
Maps:
NOTAMs:
Links:
Sources:

  
flag of Brazil
flag of Rio Grande do Sul
  

Sectional Chart

Flight Planning
at skyvector.com

Satellite Image

Google Maps Satellite View

 

Copyright © 2004-2014 Karl L. Swartz. All rights reserved.
The Great Circle Mapper name and logo are trademarks of the Great Circle Mapper.
All other trademarks mentioned herein belong to their respective owners.
Please see credits for attibutions and further copyright information.

  Follow gcmap on Facebook Follow gcmap on Twitter

hCard Microformat

Geo Microformat